sat.trackr.live / text

‹ back to catalog

STARLINK-32473

NORAD 62049 · 2024-216T

PAYLOAD ACTIVE UNKNOWN

§ Identity

Operator
Country
US
Launch date
2024-11-21
Launch site
AFETR
Launch vehicle
Mass (kg)
RCS (m²)

Purposes: comms

External: N2YO · Heavens-Above · Gunter

§ Orbital elements

Epoch: 2026-09-21T21:45:00.565920Z

Period
94.27 min
Inclination
42.9989°
Eccentricity
0.0001142
Mean motion
15.27583607 rev/d
Perigee alt
482.3 km
Apogee alt
483.8 km
Semi-major
6,861.2 km
B*
4.5543e-4
RAAN
228.2616°
Arg perigee
273.3685°
Mean anomaly
86.7036°
Rev number
10,272

§ Raw data

STARLINK-324731 62049U 24216T   26264.90625655  .00012293  00000+0  45543-3 0  99942 62049  42.9989 228.2616 0001142 273.3685  86.7036 15.27583607102729

JSON: /api/v1/satellites/62049 · /tle

For live sub-satellite position, see the globe view (requires WebGL).

§ Visibility from observer

Set your observer location to see the next 7 days of passes ≥ 10°. The values pass through the URL so the page stays shareable.

No JS? Fill the form by hand. The geolocation button needs JavaScript.